Time,TemperatureF,DewpointF,PressureIn,WindDirection,WindDirectionDegrees,WindSpeedMPH,WindSpeedGustMPH,Humidity,HourlyPrecipIn,Conditions,Clouds,dailyrainin,SoftwareType,DateUTC
2013-08-27 00:02:00,62.1,53.6,29.81,South,180,0.0,2.0,74,0.00,,,0.00,meteohub,2013-08-27 07:02:00,
2013-08-27 00:07:00,61.9,53.4,29.81,South,180,0.0,2.0,74,0.00,,,0.00,meteohub,2013-08-27 07:07:00,
2013-08-27 00:12:00,61.7,53.8,29.81,South,180,0.0,2.0,75,0.00,,,0.00,meteohub,2013-08-27 07:12:00,
2013-08-27 00:17:00,61.7,53.8,29.81,West,270,0.0,1.0,75,0.00,,,0.00,meteohub,2013-08-27 07:17:00,
2013-08-27 00:22:00,61.7,53.8,29.81,North,0,0.0,1.0,75,0.00,,,0.00,meteohub,2013-08-27 07:22:00,
2013-08-27 00:27:00,61.5,53.6,29.81,West,270,0.0,1.0,75,0.00,,,0.00,meteohub,2013-08-27 07:27:00,
2013-08-27 00:32:00,61.3,53.8,29.81,West,270,0.0,0.0,76,0.00,,,0.00,meteohub,2013-08-27 07:32:00,
2013-08-27 00:37:00,61.3,53.8,29.81,West,270,0.0,0.0,76,0.00,,,0.00,meteohub,2013-08-27 07:37:00,
2013-08-27 00:42:00,61.3,53.8,29.81,West,270,0.0,0.0,76,0.00,,,0.00,meteohub,2013-08-27 07:42:00,
2013-08-27 00:47:00,61.2,54.0,29.81,NE,45,2.0,0.0,77,0.00,,,0.00,meteohub,2013-08-27 07:47:00,
2013-08-27 00:52:00,61.3,54.1,29.81,South,180,2.0,2.0,77,0.00,,,0.00,meteohub,2013-08-27 07:52:00,
2013-08-27 00:57:00,61.5,54.3,29.82,SE,135,1.0,2.0,77,0.00,,,0.00,meteohub,2013-08-27 07:57:00,
2013-08-27 01:02:00,61.5,54.3,29.81,SE,135,2.0,2.0,77,0.00,,,0.00,meteohub,2013-08-27 08:02:00,
2013-08-27 01:07:00,61.5,54.3,29.82,SE,135,2.0,2.0,77,0.00,,,0.00,meteohub,2013-08-27 08:07:00,
2013-08-27 01:12:00,61.5,54.3,29.81,South,180,1.0,2.0,77,0.00,,,0.00,meteohub,2013-08-27 08:12:00,
2013-08-27 01:17:00,61.3,54.1,29.82,SE,135,0.0,2.0,77,0.00,,,0.00,meteohub,2013-08-27 08:17:00,
2013-08-27 01:22:00,61.3,54.1,29.81,SE,135,0.0,2.0,77,0.00,,,0.00,meteohub,2013-08-27 08:22:00,
2013-08-27 01:27:00,61.2,54.0,29.81,SE,135,1.0,2.0,77,0.00,,,0.00,meteohub,2013-08-27 08:27:00,
2013-08-27 01:32:00,61.2,54.3,29.81,SE,135,0.0,2.0,78,0.00,,,0.00,meteohub,2013-08-27 08:32:00,
2013-08-27 01:37:00,61.0,54.1,29.81,South,180,2.0,2.0,78,0.00,,,0.00,meteohub,2013-08-27 08:37:00,
2013-08-27 01:42:00,60.8,54.0,29.81,South,180,0.0,2.0,78,0.00,,,0.00,meteohub,2013-08-27 08:42:00,
2013-08-27 01:47:00,60.8,54.3,29.81,SW,225,1.0,2.0,79,0.00,,,0.00,meteohub,2013-08-27 08:47:00,
2013-08-27 01:52:00,60.6,54.1,29.81,SW,225,0.0,2.0,79,0.00,,,0.00,meteohub,2013-08-27 08:52:00,
2013-08-27 01:57:00,60.6,54.1,29.81,NE,45,0.0,1.0,79,0.00,,,0.00,meteohub,2013-08-27 08:57:00,
2013-08-27 02:02:00,60.4,54.0,29.81,NE,45,0.0,1.0,79,0.00,,,0.00,meteohub,2013-08-27 09:02:00,
2013-08-27 02:07:00,60.4,54.0,29.81,NE,45,0.0,0.0,79,0.00,,,0.00,meteohub,2013-08-27 09:07:00,
2013-08-27 02:12:00,60.3,54.1,29.81,West,270,0.0,0.0,80,0.00,,,0.00,meteohub,2013-08-27 09:12:00,
2013-08-27 02:17:00,60.1,54.3,29.81,West,270,0.0,0.0,81,0.00,,,0.00,meteohub,2013-08-27 09:17:00,
2013-08-27 02:22:00,60.1,54.3,29.81,West,270,0.0,0.0,81,0.00,,,0.00,meteohub,2013-08-27 09:22:00,
2013-08-27 02:27:00,60.1,54.3,29.81,South,180,0.0,2.0,81,0.00,,,0.00,meteohub,2013-08-27 09:27:00,
2013-08-27 02:32:00,59.9,54.3,29.81,South,180,0.0,2.0,82,0.00,,,0.00,meteohub,2013-08-27 09:32:00,
2013-08-27 02:37:00,60.1,54.5,29.80,SW,225,1.0,2.0,82,0.00,,,0.00,meteohub,2013-08-27 09:37:00,
2013-08-27 02:42:00,60.1,54.5,29.81,North,0,0.0,2.0,82,0.00,,,0.00,meteohub,2013-08-27 09:42:00,
2013-08-27 02:47:00,60.1,54.5,29.80,SW,225,0.0,2.0,82,0.00,,,0.00,meteohub,2013-08-27 09:47:00,
2013-08-27 02:52:00,60.1,54.5,29.80,SW,225,2.0,2.0,82,0.00,,,0.00,meteohub,2013-08-27 09:52:00,
2013-08-27 02:57:00,60.1,54.5,29.80,SW,225,0.0,2.0,82,0.00,,,0.00,meteohub,2013-08-27 09:57:00,
2013-08-27 03:02:00,59.9,54.3,29.80,SW,225,1.0,2.0,82,0.00,,,0.00,meteohub,2013-08-27 10:02:00,
2013-08-27 03:07:00,59.7,54.1,29.80,SW,225,1.0,2.0,82,0.00,,,0.00,meteohub,2013-08-27 10:07:00,
2013-08-27 03:12:00,59.5,54.0,29.80,SW,225,0.0,1.0,82,0.00,,,0.00,meteohub,2013-08-27 10:12:00,
2013-08-27 03:18:00,59.4,53.8,29.80,SW,225,0.0,1.0,82,0.00,,,0.00,meteohub,2013-08-27 10:18:00,
2013-08-27 03:23:00,59.2,53.6,29.80,SW,225,2.0,2.0,82,0.00,,,0.00,meteohub,2013-08-27 10:23:00,
2013-08-27 03:28:00,59.0,53.6,29.80,West,270,2.0,2.0,82,0.00,,,0.00,meteohub,2013-08-27 10:28:00,
2013-08-27 03:33:00,58.8,53.6,29.80,SW,225,0.0,2.0,83,0.00,,,0.00,meteohub,2013-08-27 10:33:00,
2013-08-27 03:38:00,58.6,53.4,29.80,SW,225,0.0,2.0,83,0.00,,,0.00,meteohub,2013-08-27 10:38:00,
2013-08-27 03:43:00,58.5,53.2,29.80,SW,225,1.0,2.0,83,0.00,,,0.00,meteohub,2013-08-27 10:43:00,
2013-08-27 03:48:00,58.3,53.1,29.80,SW,225,0.0,1.0,83,0.00,,,0.00,meteohub,2013-08-27 10:48:00,
2013-08-27 03:54:00,58.1,52.9,29.80,SW,225,0.0,1.0,83,0.00,,,0.00,meteohub,2013-08-27 10:54:00,
2013-08-27 03:59:00,57.9,53.1,29.80,West,270,0.0,1.0,84,0.00,,,0.00,meteohub,2013-08-27 10:59:00,
2013-08-27 04:04:00,57.9,53.1,29.80,West,270,0.0,0.0,84,0.00,,,0.00,meteohub,2013-08-27 11:04:00,
2013-08-27 04:09:00,57.7,52.9,29.80,North,0,0.0,0.0,84,0.00,,,0.00,meteohub,2013-08-27 11:09:00,
2013-08-27 04:14:00,57.7,53.2,29.80,North,0,0.0,1.0,85,0.00,,,0.00,meteohub,2013-08-27 11:14:00,
2013-08-27 04:19:00,57.7,53.2,29.80,North,0,0.0,1.0,85,0.00,,,0.00,meteohub,2013-08-27 11:19:00,
2013-08-27 04:24:00,57.7,53.2,29.80,North,0,0.0,1.0,85,0.00,,,0.00,meteohub,2013-08-27 11:24:00,
2013-08-27 04:29:00,57.6,53.4,29.80,North,0,0.0,0.0,86,0.00,,,0.00,meteohub,2013-08-27 11:29:00,
2013-08-27 04:34:00,57.6,53.1,29.80,North,0,0.0,0.0,85,0.00,,,0.00,meteohub,2013-08-27 11:34:00,
2013-08-27 04:39:00,57.4,53.2,29.80,North,0,0.0,0.0,86,0.00,,,0.00,meteohub,2013-08-27 11:39:00,
2013-08-27 04:44:00,57.4,53.2,29.80,North,0,0.0,0.0,86,0.00,,,0.00,meteohub,2013-08-27 11:44:00,
2013-08-27 04:49:00,57.2,53.1,29.80,North,0,0.0,0.0,86,0.00,,,0.00,meteohub,2013-08-27 11:49:00,
2013-08-27 04:54:00,57.2,53.4,29.80,North,0,0.0,0.0,87,0.00,,,0.00,meteohub,2013-08-27 11:54:00,
2013-08-27 05:00:00,57.2,53.4,29.80,North,0,0.0,0.0,87,0.00,,,0.00,meteohub,2013-08-27 12:00:00,
2013-08-27 05:05:00,57.2,53.4,29.80,North,0,0.0,0.0,87,0.00,,,0.00,meteohub,2013-08-27 12:05:00,
2013-08-27 05:10:00,57.2,53.4,29.80,North,0,0.0,0.0,87,0.00,,,0.00,meteohub,2013-08-27 12:10:00,
2013-08-27 05:15:00,57.0,53.2,29.80,North,0,0.0,0.0,87,0.00,,,0.00,meteohub,2013-08-27 12:15:00,
2013-08-27 05:20:00,57.0,53.2,29.80,North,0,0.0,0.0,87,0.00,,,0.00,meteohub,2013-08-27 12:20:00,
2013-08-27 05:25:00,57.0,53.2,29.80,North,0,0.0,0.0,87,0.00,,,0.00,meteohub,2013-08-27 12:25:00,
2013-08-27 05:30:00,57.0,53.4,29.80,North,0,0.0,0.0,88,0.00,,,0.00,meteohub,2013-08-27 12:30:00,
2013-08-27 05:35:00,57.0,53.4,29.80,North,0,0.0,0.0,88,0.00,,,0.00,meteohub,2013-08-27 12:35:00,
2013-08-27 05:40:00,57.0,53.4,29.80,North,0,0.0,0.0,88,0.00,,,0.00,meteohub,2013-08-27 12:40:00,
2013-08-27 05:45:00,57.0,53.4,29.80,North,0,0.0,0.0,88,0.00,,,0.00,meteohub,2013-08-27 12:45:00,
2013-08-27 05:50:00,57.0,53.4,29.80,North,0,0.0,0.0,88,0.00,,,0.00,meteohub,2013-08-27 12:50:00,
2013-08-27 05:55:00,57.2,53.6,29.80,North,0,0.0,0.0,88,0.00,,,0.00,meteohub,2013-08-27 12:55:00,
2013-08-27 06:00:00,57.2,53.6,29.80,North,0,0.0,0.0,88,0.00,,,0.00,meteohub,2013-08-27 13:00:00,
2013-08-27 06:05:00,57.2,54.0,29.80,North,0,0.0,0.0,89,0.00,,,0.00,meteohub,2013-08-27 13:05:00,
2013-08-27 06:10:00,57.2,53.6,29.81,North,0,0.0,0.0,88,0.00,,,0.00,meteohub,2013-08-27 13:10:00,
2013-08-27 06:16:00,57.2,53.6,29.81,North,0,0.0,0.0,88,0.00,,,0.00,meteohub,2013-08-27 13:16:00,
2013-08-27 06:21:00,57.0,53.4,29.81,North,0,0.0,0.0,88,0.00,,,0.00,meteohub,2013-08-27 13:21:00,
2013-08-27 06:26:00,57.0,53.4,29.81,North,0,0.0,0.0,88,0.00,,,0.00,meteohub,2013-08-27 13:26:00,
2013-08-27 06:31:00,57.0,53.4,29.81,SW,225,1.0,0.0,88,0.00,,,0.00,meteohub,2013-08-27 13:31:00,
2013-08-27 06:36:00,56.7,53.1,29.81,SW,225,0.0,2.0,88,0.00,,,0.00,meteohub,2013-08-27 13:36:00,
2013-08-27 06:41:00,56.7,53.1,29.81,SW,225,0.0,2.0,88,0.00,,,0.00,meteohub,2013-08-27 13:41:00,
2013-08-27 06:46:00,56.7,53.1,29.81,SW,225,0.0,1.0,88,0.00,,,0.00,meteohub,2013-08-27 13:46:00,
2013-08-27 06:51:00,56.7,53.1,29.81,SW,225,0.0,0.0,88,0.00,,,0.00,meteohub,2013-08-27 13:51:00,
2013-08-27 06:56:00,56.7,53.1,29.81,North,0,1.0,0.0,88,0.00,,,0.00,meteohub,2013-08-27 13:56:00,
2013-08-27 07:01:00,56.8,53.6,29.81,North,0,0.0,1.0,89,0.00,,,0.00,meteohub,2013-08-27 14:01:00,
2013-08-27 07:06:00,56.8,53.6,29.81,West,270,0.0,1.0,89,0.00,,,0.00,meteohub,2013-08-27 14:06:00,
2013-08-27 07:11:00,57.0,53.8,29.81,West,270,0.0,1.0,89,0.00,,,0.00,meteohub,2013-08-27 14:11:00,
2013-08-27 07:16:00,57.2,54.0,29.82,West,270,0.0,0.0,89,0.00,,,0.00,meteohub,2013-08-27 14:16:00,
2013-08-27 07:21:00,57.4,54.1,29.81,West,270,0.0,0.0,89,0.00,,,0.00,meteohub,2013-08-27 14:21:00,
2013-08-27 07:26:00,57.6,54.3,29.82,West,270,0.0,0.0,89,0.00,,,0.00,meteohub,2013-08-27 14:26:00,
2013-08-27 07:31:00,57.9,54.7,29.81,SW,225,0.0,0.0,89,0.00,,,0.00,meteohub,2013-08-27 14:31:00,
2013-08-27 07:37:00,58.3,55.0,29.82,SW,225,0.0,0.0,89,0.00,,,0.00,meteohub,2013-08-27 14:37:00,
2013-08-27 07:42:00,58.6,55.4,29.82,SW,225,0.0,0.0,89,0.00,,,0.00,meteohub,2013-08-27 14:42:00,
2013-08-27 07:47:00,59.0,55.4,29.82,SW,225,0.0,0.0,88,0.00,,,0.00,meteohub,2013-08-27 14:47:00,
2013-08-27 07:52:00,59.5,55.9,29.82,SW,225,0.0,2.0,88,0.00,,,0.00,meteohub,2013-08-27 14:52:00,
2013-08-27 07:57:00,59.9,56.3,29.82,NW,315,1.0,2.0,88,0.00,,,0.00,meteohub,2013-08-27 14:57:00,
2013-08-27 08:02:00,60.4,56.8,29.82,NE,45,2.0,2.0,88,0.00,,,0.00,meteohub,2013-08-27 15:02:00,
2013-08-27 08:07:00,61.2,57.2,29.81,NE,45,2.0,2.0,87,0.00,,,0.00,meteohub,2013-08-27 15:07:00,
2013-08-27 08:12:00,62.2,57.9,29.81,SW,225,2.0,2.0,86,0.00,,,0.00,meteohub,2013-08-27 15:12:00,
2013-08-27 08:17:00,62.8,57.9,29.81,NE,45,1.0,2.0,84,0.00,,,0.00,meteohub,2013-08-27 15:17:00,
2013-08-27 08:22:00,63.5,58.3,29.81,NE,45,3.0,3.0,83,0.00,,,0.00,meteohub,2013-08-27 15:22:00,
2013-08-27 08:27:00,64.2,58.3,29.81,North,0,2.0,3.0,81,0.00,,,0.00,meteohub,2013-08-27 15:27:00,
2013-08-27 08:32:00,65.1,58.5,29.82,NE,45,3.0,3.0,79,0.00,,,0.00,meteohub,2013-08-27 15:32:00,
2013-08-27 08:37:00,66.2,58.8,29.82,NE,45,2.0,3.0,77,0.00,,,0.00,meteohub,2013-08-27 15:37:00,
2013-08-27 08:42:00,66.9,58.8,29.81,North,0,3.0,4.0,75,0.00,,,0.00,meteohub,2013-08-27 15:42:00,
2013-08-27 08:47:00,67.6,59.0,29.82,NE,45,3.0,4.0,74,0.00,,,0.00,meteohub,2013-08-27 15:47:00,
2013-08-27 08:52:00,68.5,59.2,29.81,NE,45,3.0,4.0,72,0.00,,,0.00,meteohub,2013-08-27 15:52:00,
2013-08-27 08:57:00,69.1,59.4,29.81,North,0,2.0,4.0,71,0.00,,,0.00,meteohub,2013-08-27 15:57:00,
2013-08-27 09:02:00,69.6,59.4,29.82,North,0,2.0,4.0,70,0.00,,,0.00,meteohub,2013-08-27 16:02:00,
2013-08-27 09:07:00,70.2,59.5,29.82,NE,45,3.0,4.0,69,0.00,,,0.00,meteohub,2013-08-27 16:07:00,
2013-08-27 09:12:00,70.7,59.2,29.81,East,90,2.0,4.0,67,0.00,,,0.00,meteohub,2013-08-27 16:12:00,
2013-08-27 09:17:00,71.1,59.5,29.82,East,90,2.0,4.0,67,0.00,,,0.00,meteohub,2013-08-27 16:17:00,
2013-08-27 09:22:00,71.8,59.7,29.82,NE,45,2.0,4.0,66,0.00,,,0.00,meteohub,2013-08-27 16:22:00,
2013-08-27 09:27:00,72.5,60.1,29.81,NE,45,2.0,4.0,65,0.00,,,0.00,meteohub,2013-08-27 16:27:00,
2013-08-27 09:32:00,73.2,59.9,29.81,NE,45,2.0,4.0,63,0.00,,,0.00,meteohub,2013-08-27 16:32:00,
2013-08-27 09:37:00,73.8,60.4,29.81,NE,45,4.0,4.0,63,0.00,,,0.00,meteohub,2013-08-27 16:37:00,
2013-08-27 09:42:00,74.3,59.9,29.81,SE,135,4.0,4.0,61,0.00,,,0.00,meteohub,2013-08-27 16:42:00,
2013-08-27 09:47:00,74.7,59.9,29.81,East,90,2.0,4.0,60,0.00,,,0.00,meteohub,2013-08-27 16:47:00,
2013-08-27 09:52:00,75.4,60.1,29.81,North,0,4.0,4.0,59,0.00,,,0.00,meteohub,2013-08-27 16:52:00,
2013-08-27 09:57:00,75.9,60.6,29.81,NE,45,3.0,4.0,59,0.00,,,0.00,meteohub,2013-08-27 16:57:00,
2013-08-27 10:02:00,76.5,60.1,29.81,North,0,3.0,4.0,57,0.00,,,0.00,meteohub,2013-08-27 17:02:00,
2013-08-27 10:07:00,76.8,59.4,29.81,NE,45,2.0,4.0,55,0.00,,,0.00,meteohub,2013-08-27 17:07:00,
2013-08-27 10:12:00,77.5,60.6,29.81,NE,45,2.0,4.0,56,0.00,,,0.00,meteohub,2013-08-27 17:12:00,
2013-08-27 10:17:00,78.3,60.8,29.81,NE,45,2.0,4.0,55,0.00,,,0.00,meteohub,2013-08-27 17:17:00,
2013-08-27 10:22:00,79.0,61.0,29.81,NE,45,2.0,4.0,54,0.00,,,0.00,meteohub,2013-08-27 17:22:00,
2013-08-27 10:27:00,80.1,60.8,29.80,NW,315,3.0,3.0,52,0.00,,,0.00,meteohub,2013-08-27 17:27:00,
2013-08-27 10:32:00,80.6,60.3,29.81,NE,45,2.0,4.0,50,0.00,,,0.00,meteohub,2013-08-27 17:32:00,
2013-08-27 10:37:00,81.1,61.3,29.81,NE,45,2.0,4.0,51,0.00,,,0.00,meteohub,2013-08-27 17:37:00,
2013-08-27 10:42:00,82.2,61.7,29.81,South,180,2.0,4.0,50,0.00,,,0.00,meteohub,2013-08-27 17:42:00,
2013-08-27 10:47:00,83.5,61.7,29.80,SE,135,2.0,3.0,48,0.00,,,0.00,meteohub,2013-08-27 17:47:00,
2013-08-27 10:52:00,84.4,61.3,29.81,NW,315,2.0,3.0,46,0.00,,,0.00,meteohub,2013-08-27 17:52:00,
2013-08-27 10:57:00,84.9,61.2,29.81,East,90,3.0,3.0,45,0.00,,,0.00,meteohub,2013-08-27 17:57:00,
2013-08-27 11:02:00,85.3,61.0,29.80,North,0,2.0,3.0,44,0.00,,,0.00,meteohub,2013-08-27 18:02:00,
2013-08-27 11:07:00,86.2,61.7,29.80,South,180,2.0,3.0,44,0.00,,,0.00,meteohub,2013-08-27 18:07:00,
2013-08-27 11:12:00,87.3,61.3,29.80,NW,315,2.0,3.0,42,0.00,,,0.00,meteohub,2013-08-27 18:12:00,
2013-08-27 11:17:00,87.6,59.5,29.80,SE,135,3.0,3.0,39,0.00,,,0.00,meteohub,2013-08-27 18:17:00,
2013-08-27 11:22:00,87.6,59.5,29.80,North,0,2.0,4.0,39,0.00,,,0.00,meteohub,2013-08-27 18:22:00,
2013-08-27 11:27:00,87.4,59.4,29.80,South,180,2.0,4.0,39,0.00,,,0.00,meteohub,2013-08-27 18:27:00,
2013-08-27 11:32:00,88.2,58.6,29.80,SE,135,2.0,4.0,37,0.00,,,0.00,meteohub,2013-08-27 18:32:00,
2013-08-27 11:37:00,88.9,59.2,29.80,SE,135,3.0,4.0,37,0.00,,,0.00,meteohub,2013-08-27 18:37:00,
2013-08-27 11:42:00,89.8,59.2,29.80,South,180,3.0,4.0,36,0.00,,,0.00,meteohub,2013-08-27 18:42:00,
2013-08-27 11:47:00,90.0,58.6,29.79,North,0,1.0,4.0,35,0.00,,,0.00,meteohub,2013-08-27 18:47:00,
2013-08-27 11:52:00,90.9,59.4,29.79,North,0,2.0,4.0,35,0.00,,,0.00,meteohub,2013-08-27 18:52:00,
2013-08-27 11:57:00,91.2,59.0,29.79,NE,45,2.0,3.0,34,0.00,,,0.00,meteohub,2013-08-27 18:57:00,
2013-08-27 12:02:00,91.0,57.0,29.79,North,0,2.0,2.0,32,0.00,,,0.00,meteohub,2013-08-27 19:02:00,
2013-08-27 12:07:00,91.0,57.9,29.79,North,0,2.0,2.0,33,0.00,,,0.00,meteohub,2013-08-27 19:07:00,
2013-08-27 12:12:00,91.4,58.3,29.79,East,90,2.0,3.0,33,0.00,,,0.00,meteohub,2013-08-27 19:12:00,
2013-08-27 12:17:00,92.3,59.0,29.79,West,270,2.0,3.0,33,0.00,,,0.00,meteohub,2013-08-27 19:17:00,
2013-08-27 12:22:00,92.8,57.7,29.78,SE,135,2.0,3.0,31,0.00,,,0.00,meteohub,2013-08-27 19:22:00,
2013-08-27 12:27:00,93.2,57.2,29.78,SE,135,3.0,3.0,30,0.00,,,0.00,meteohub,2013-08-27 19:27:00,
2013-08-27 12:32:00,93.2,57.2,29.78,NE,45,1.0,3.0,30,0.00,,,0.00,meteohub,2013-08-27 19:32:00,
2013-08-27 12:37:00,93.9,56.8,29.78,NE,45,2.0,3.0,29,0.00,,,0.00,meteohub,2013-08-27 19:37:00,
2013-08-27 12:42:00,94.5,57.4,29.78,SW,225,2.0,3.0,29,0.00,,,0.00,meteohub,2013-08-27 19:42:00,
2013-08-27 12:47:00,94.8,55.6,29.78,SE,135,2.0,4.0,27,0.00,,,0.00,meteohub,2013-08-27 19:47:00,
2013-08-27 12:52:00,95.2,54.9,29.77,South,180,2.0,4.0,26,0.00,,,0.00,meteohub,2013-08-27 19:52:00,
2013-08-27 12:57:00,94.6,52.2,29.77,East,90,2.0,4.0,24,0.00,,,0.00,meteohub,2013-08-27 19:57:00,
2013-08-27 13:02:00,94.3,53.1,29.77,SW,225,3.0,4.0,25,0.00,,,0.00,meteohub,2013-08-27 20:02:00,
2013-08-27 13:07:00,94.3,50.7,29.77,South,180,2.0,4.0,23,0.00,,,0.00,meteohub,2013-08-27 20:07:00,
2013-08-27 13:12:00,94.5,50.9,29.77,West,270,2.0,4.0,23,0.00,,,0.00,meteohub,2013-08-27 20:12:00,
2013-08-27 13:17:00,95.0,50.2,29.77,NE,45,2.0,4.0,22,0.00,,,0.00,meteohub,2013-08-27 20:17:00,
2013-08-27 13:22:00,95.7,50.7,29.77,South,180,2.0,4.0,22,0.00,,,0.00,meteohub,2013-08-27 20:22:00,
2013-08-27 13:27:00,96.3,50.0,29.76,NW,315,2.0,2.0,21,0.00,,,0.00,meteohub,2013-08-27 20:27:00,
2013-08-27 13:32:00,96.4,51.4,29.77,East,90,2.0,3.0,22,0.00,,,0.00,meteohub,2013-08-27 20:32:00,
2013-08-27 13:37:00,96.6,51.6,29.76,South,180,2.0,4.0,22,0.00,,,0.00,meteohub,2013-08-27 20:37:00,
2013-08-27 13:42:00,96.8,51.6,29.76,SW,225,3.0,4.0,22,0.00,,,0.00,meteohub,2013-08-27 20:42:00,
2013-08-27 13:47:00,96.8,51.6,29.76,SW,225,2.0,3.0,22,0.00,,,0.00,meteohub,2013-08-27 20:47:00,
2013-08-27 13:52:00,97.3,52.2,29.76,NW,315,2.0,3.0,22,0.00,,,0.00,meteohub,2013-08-27 20:52:00,
2013-08-27 13:57:00,97.7,51.1,29.76,SE,135,3.0,3.0,21,0.00,,,0.00,meteohub,2013-08-27 20:57:00,
2013-08-27 14:02:00,97.7,49.8,29.76,SE,135,2.0,4.0,20,0.00,,,0.00,meteohub,2013-08-27 21:02:00,
2013-08-27 14:07:00,98.1,48.7,29.76,SW,225,2.0,4.0,19,0.00,,,0.00,meteohub,2013-08-27 21:07:00,
2013-08-27 14:12:00,98.4,49.1,29.76,WNW,293,2.0,4.0,19,0.00,,,0.00,meteohub,2013-08-27 21:12:00,
2013-08-27 14:17:00,98.4,49.1,29.75,North,0,4.0,4.0,19,0.00,,,0.00,meteohub,2013-08-27 21:17:00,
2013-08-27 14:27:00,98.4,51.8,29.75,West,270,3.0,4.0,21,0.00,,,0.00,meteohub,2013-08-27 21:27:00,
2013-08-27 14:32:00,98.6,53.2,29.75,SW,225,2.0,3.0,22,0.00,,,0.00,meteohub,2013-08-27 21:32:00,
2013-08-27 14:42:00,99.3,51.3,29.74,NW,315,3.0,3.0,20,0.00,,,0.00,meteohub,2013-08-27 21:42:00,
2013-08-27 14:47:00,99.3,51.3,29.74,SW,225,2.0,3.0,20,0.00,,,0.00,meteohub,2013-08-27 21:47:00,
2013-08-27 14:52:00,99.5,48.6,29.74,NW,315,2.0,3.0,18,0.00,,,0.00,meteohub,2013-08-27 21:52:00,
2013-08-27 14:57:00,99.7,51.4,29.73,SW,225,3.0,3.0,20,0.00,,,0.00,meteohub,2013-08-27 21:57:00,
2013-08-27 15:03:00,99.9,50.2,29.73,SW,225,2.0,3.0,19,0.00,,,0.00,meteohub,2013-08-27 22:03:00,
2013-08-27 15:08:00,99.3,49.8,29.73,SW,225,2.0,3.0,19,0.00,,,0.00,meteohub,2013-08-27 22:08:00,
2013-08-27 15:13:00,99.1,51.1,29.73,SW,225,2.0,3.0,20,0.00,,,0.00,meteohub,2013-08-27 22:13:00,
2013-08-27 15:18:00,99.3,52.5,29.73,NW,315,1.0,3.0,21,0.00,,,0.00,meteohub,2013-08-27 22:18:00,
2013-08-27 15:23:00,99.9,51.6,29.73,West,270,1.0,3.0,20,0.00,,,0.00,meteohub,2013-08-27 22:23:00,
2013-08-27 15:28:00,100.2,52.0,29.73,West,270,2.0,3.0,20,0.00,,,0.00,meteohub,2013-08-27 22:28:00,
2013-08-27 15:33:00,100.6,52.2,29.72,SE,135,2.0,3.0,20,0.00,,,0.00,meteohub,2013-08-27 22:33:00,
2013-08-27 15:38:00,100.6,52.2,29.72,South,180,2.0,3.0,20,0.00,,,0.00,meteohub,2013-08-27 22:38:00,
2013-08-27 15:43:00,100.4,50.7,29.72,NE,45,2.0,4.0,19,0.00,,,0.00,meteohub,2013-08-27 22:43:00,
2013-08-27 15:48:00,100.6,50.9,29.72,South,180,2.0,4.0,19,0.00,,,0.00,meteohub,2013-08-27 22:48:00,
2013-08-27 15:53:00,100.4,47.7,29.72,SW,225,2.0,4.0,17,0.00,,,0.00,meteohub,2013-08-27 22:53:00,
2013-08-27 15:58:00,100.4,50.7,29.72,SE,135,2.0,2.0,19,0.00,,,0.00,meteohub,2013-08-27 22:58:00,
2013-08-27 16:03:00,100.6,47.8,29.71,SW,225,2.0,2.0,17,0.00,,,0.00,meteohub,2013-08-27 23:03:00,
2013-08-27 16:09:00,100.4,47.7,29.71,SW,225,2.0,3.0,17,0.00,,,0.00,meteohub,2013-08-27 23:09:00,
2013-08-27 16:14:00,100.2,47.5,29.71,SW,225,2.0,3.0,17,0.00,,,0.00,meteohub,2013-08-27 23:14:00,
2013-08-27 16:19:00,99.9,48.7,29.70,North,0,2.0,4.0,18,0.00,,,0.00,meteohub,2013-08-27 23:19:00,
2013-08-27 16:24:00,99.7,48.6,29.71,West,270,2.0,4.0,18,0.00,,,0.00,meteohub,2013-08-27 23:24:00,
2013-08-27 16:29:00,99.1,49.6,29.71,NE,45,2.0,4.0,19,0.00,,,0.00,meteohub,2013-08-27 23:29:00,
2013-08-27 16:34:00,99.0,46.6,29.71,South,180,2.0,4.0,17,0.00,,,0.00,meteohub,2013-08-27 23:34:00,
2013-08-27 16:39:00,99.0,46.6,29.70,South,180,2.0,4.0,17,0.00,,,0.00,meteohub,2013-08-27 23:39:00,
2013-08-27 16:44:00,99.0,46.6,29.70,South,180,2.0,4.0,17,0.00,,,0.00,meteohub,2013-08-27 23:44:00,
2013-08-27 16:49:00,98.6,49.3,29.70,SW,225,2.0,3.0,19,0.00,,,0.00,meteohub,2013-08-27 23:49:00,
2013-08-27 16:54:00,98.2,51.6,29.70,SW,225,2.0,3.0,21,0.00,,,0.00,meteohub,2013-08-27 23:54:00,
2013-08-27 16:59:00,97.9,52.5,29.70,SW,225,2.0,3.0,22,0.00,,,0.00,meteohub,2013-08-27 23:59:00,
2013-08-27 17:04:00,97.3,54.5,29.70,South,180,3.0,3.0,24,0.00,,,0.00,meteohub,2013-08-28 00:04:00,
2013-08-27 17:10:00,96.4,54.9,29.70,South,180,2.0,4.0,25,0.00,,,0.00,meteohub,2013-08-28 00:10:00,
2013-08-27 17:15:00,95.7,56.3,29.70,SW,225,2.0,4.0,27,0.00,,,0.00,meteohub,2013-08-28 00:15:00,
2013-08-27 17:20:00,95.0,55.8,29.70,South,180,2.0,4.0,27,0.00,,,0.00,meteohub,2013-08-28 00:20:00,
2013-08-27 17:25:00,94.1,55.9,29.70,NE,45,3.0,3.0,28,0.00,,,0.00,meteohub,2013-08-28 00:25:00,
2013-08-27 17:30:00,93.6,56.5,29.70,NW,315,2.0,4.0,29,0.00,,,0.00,meteohub,2013-08-28 00:30:00,
2013-08-27 17:35:00,93.0,57.0,29.70,NW,315,2.0,4.0,30,0.00,,,0.00,meteohub,2013-08-28 00:35:00,
2013-08-27 17:40:00,92.5,56.5,29.70,East,90,2.0,4.0,30,0.00,,,0.00,meteohub,2013-08-28 00:40:00,
2013-08-27 17:45:00,91.9,56.1,29.70,South,180,2.0,2.0,30,0.00,,,0.00,meteohub,2013-08-28 00:45:00,
2013-08-27 17:50:00,91.6,55.8,29.70,South,180,2.0,2.0,30,0.00,,,0.00,meteohub,2013-08-28 00:50:00,
2013-08-27 17:55:00,91.0,55.2,29.70,SE,135,4.0,4.0,30,0.00,,,0.00,meteohub,2013-08-28 00:55:00,
2013-08-27 18:00:00,90.5,55.8,29.70,West,270,1.0,4.0,31,0.00,,,0.00,meteohub,2013-08-28 01:00:00,
2013-08-27 18:05:00,90.0,56.1,29.70,NE,45,2.0,4.0,32,0.00,,,0.00,meteohub,2013-08-28 01:05:00,
2013-08-27 18:11:00,89.6,55.0,29.70,West,270,2.0,4.0,31,0.00,,,0.00,meteohub,2013-08-28 01:11:00,
2013-08-27 18:16:00,89.2,54.7,29.70,West,270,2.0,2.0,31,0.00,,,0.00,meteohub,2013-08-28 01:16:00,
2013-08-27 18:21:00,88.7,55.0,29.70,SW,225,1.0,2.0,32,0.00,,,0.00,meteohub,2013-08-28 01:21:00,
2013-08-27 18:26:00,88.2,54.5,29.70,SW,225,2.0,2.0,32,0.00,,,0.00,meteohub,2013-08-28 01:26:00,
2013-08-27 18:31:00,88.0,54.5,29.70,South,180,2.0,2.0,32,0.00,,,0.00,meteohub,2013-08-28 01:31:00,
2013-08-27 18:36:00,87.3,54.7,29.70,SW,225,2.0,2.0,33,0.00,,,0.00,meteohub,2013-08-28 01:36:00,
2013-08-27 18:42:00,86.7,54.1,29.70,NE,45,1.0,2.0,33,0.00,,,0.00,meteohub,2013-08-28 01:42:00,
2013-08-27 18:47:00,86.2,54.5,29.70,SW,225,2.0,2.0,34,0.00,,,0.00,meteohub,2013-08-28 01:47:00,
2013-08-27 18:52:00,85.6,54.9,29.70,SW,225,1.0,2.0,35,0.00,,,0.00,meteohub,2013-08-28 01:52:00,
2013-08-27 18:57:00,85.1,54.3,29.70,SE,135,1.0,2.0,35,0.00,,,0.00,meteohub,2013-08-28 01:57:00,
2013-08-27 19:03:00,84.4,54.5,29.70,SW,225,2.0,2.0,36,0.00,,,0.00,meteohub,2013-08-28 02:03:00,
2013-08-27 19:08:00,83.7,54.0,29.70,North,0,2.0,3.0,36,0.00,,,0.00,meteohub,2013-08-28 02:08:00,
2013-08-27 19:13:00,82.9,54.0,29.70,SW,225,1.0,3.0,37,0.00,,,0.00,meteohub,2013-08-28 02:13:00,
2013-08-27 19:18:00,82.0,53.2,29.70,West,270,1.0,2.0,37,0.00,,,0.00,meteohub,2013-08-28 02:18:00,
2013-08-27 19:23:00,81.3,52.5,29.70,SE,135,2.0,2.0,37,0.00,,,0.00,meteohub,2013-08-28 02:23:00,
2013-08-27 19:28:00,80.6,52.7,29.70,South,180,1.0,2.0,38,0.00,,,0.00,meteohub,2013-08-28 02:28:00,
2013-08-27 19:34:00,79.9,53.4,29.70,SW,225,1.0,2.0,40,0.00,,,0.00,meteohub,2013-08-28 02:34:00,
2013-08-27 19:39:00,79.2,52.7,29.70,NE,45,1.0,2.0,40,0.00,,,0.00,meteohub,2013-08-28 02:39:00,
2013-08-27 19:44:00,78.4,52.7,29.71,South,180,1.0,2.0,41,0.00,,,0.00,meteohub,2013-08-28 02:44:00,
2013-08-27 19:49:00,77.7,52.9,29.71,SE,135,0.0,2.0,42,0.00,,,0.00,meteohub,2013-08-28 02:49:00,
2013-08-27 19:55:00,77.0,52.9,29.71,SE,135,1.0,2.0,43,0.00,,,0.00,meteohub,2013-08-28 02:55:00,
2013-08-27 20:00:00,75.9,52.5,29.71,NE,45,0.0,2.0,44,0.00,,,0.00,meteohub,2013-08-28 03:00:00,
2013-08-27 20:06:00,75.9,52.5,29.72,NE,45,0.0,2.0,44,0.00,,,0.00,meteohub,2013-08-28 03:06:00,
2013-08-27 20:11:00,74.7,53.1,29.72,North,0,2.0,2.0,47,0.00,,,0.00,meteohub,2013-08-28 03:11:00,
2013-08-27 20:16:00,73.9,53.1,29.72,South,180,2.0,2.0,48,0.00,,,0.00,meteohub,2013-08-28 03:16:00,
2013-08-27 20:21:00,73.2,52.9,29.72,SE,135,2.0,4.0,49,0.00,,,0.00,meteohub,2013-08-28 03:21:00,
2013-08-27 20:27:00,72.9,53.1,29.72,West,270,1.0,4.0,50,0.00,,,0.00,meteohub,2013-08-28 03:27:00,
2013-08-27 20:32:00,72.3,53.8,29.73,South,180,2.0,4.0,52,0.00,,,0.00,meteohub,2013-08-28 03:32:00,
2013-08-27 20:37:00,72.0,54.0,29.73,NE,45,2.0,2.0,53,0.00,,,0.00,meteohub,2013-08-28 03:37:00,
2013-08-27 20:42:00,71.4,54.0,29.73,East,90,2.0,2.0,54,0.00,,,0.00,meteohub,2013-08-28 03:42:00,
2013-08-27 20:47:00,71.1,54.1,29.73,West,270,0.0,2.0,55,0.00,,,0.00,meteohub,2013-08-28 03:47:00,
2013-08-27 20:52:00,70.5,54.1,29.73,NE,45,1.0,2.0,56,0.00,,,0.00,meteohub,2013-08-28 03:52:00,
2013-08-27 20:57:00,70.2,54.7,29.73,NE,45,2.0,2.0,58,0.00,,,0.00,meteohub,2013-08-28 03:57:00,
2013-08-27 21:01:00,69.8,54.3,29.73,NE,45,0.0,2.0,58,0.00,,,0.00,meteohub,2013-08-28 04:01:00,
2013-08-27 21:02:00,69.8,54.3,29.73,NE,45,0.0,2.0,58,0.00,,,0.00,meteohub,2013-08-28 04:02:00,
2013-08-27 21:03:00,69.8,54.3,29.73,NE,45,0.0,2.0,58,0.00,,,0.00,meteohub,2013-08-28 04:03:00,
2013-08-27 21:04:00,69.8,54.3,29.73,NE,45,0.0,2.0,58,0.00,,,0.00,meteohub,2013-08-28 04:04:00,
2013-08-27 21:09:00,69.4,54.5,29.73,NE,45,0.0,2.0,59,0.00,,,0.00,meteohub,2013-08-28 04:09:00,
2013-08-27 21:15:00,69.1,54.7,29.73,West,270,1.0,2.0,60,0.00,,,0.00,meteohub,2013-08-28 04:15:00,
2013-08-27 21:17:00,68.9,54.9,29.74,South,180,2.0,2.0,61,0.00,,,0.00,meteohub,2013-08-28 04:17:00,
2013-08-27 21:22:00,68.5,55.0,29.75,South,180,1.0,2.0,62,0.00,,,0.00,meteohub,2013-08-28 04:22:00,
2013-08-27 21:27:00,68.4,55.2,29.74,SW,225,2.0,2.0,63,0.00,,,0.00,meteohub,2013-08-28 04:27:00,
2013-08-27 21:32:00,68.0,54.9,29.74,NW,315,1.0,2.0,63,0.00,,,0.00,meteohub,2013-08-28 04:32:00,
2013-08-27 21:37:00,67.8,55.2,29.74,West,270,0.0,2.0,64,0.00,,,0.00,meteohub,2013-08-28 04:37:00,
2013-08-27 21:42:00,67.6,55.4,29.74,East,90,1.0,2.0,65,0.00,,,0.00,meteohub,2013-08-28 04:42:00,
2013-08-27 21:47:00,67.3,55.0,29.74,South,180,2.0,2.0,65,0.00,,,0.00,meteohub,2013-08-28 04:47:00,
2013-08-27 21:52:00,67.1,54.9,29.74,SW,225,1.0,2.0,65,0.00,,,0.00,meteohub,2013-08-28 04:52:00,
2013-08-27 21:57:00,66.9,55.2,29.74,NE,45,2.0,2.0,66,0.00,,,0.00,meteohub,2013-08-28 04:57:00,
2013-08-27 22:02:00,66.7,55.4,29.74,NE,45,2.0,2.0,67,0.00,,,0.00,meteohub,2013-08-28 05:02:00,
2013-08-27 22:07:00,66.7,55.4,29.74,NE,45,2.0,2.0,67,0.00,,,0.00,meteohub,2013-08-28 05:07:00,
2013-08-27 22:12:00,66.2,55.4,29.74,NE,45,2.0,2.0,68,0.00,,,0.00,meteohub,2013-08-28 05:12:00,
2013-08-27 22:17:00,66.0,55.6,29.75,NE,45,1.0,3.0,69,0.00,,,0.00,meteohub,2013-08-28 05:17:00,
2013-08-27 22:22:00,66.0,55.6,29.74,SW,225,2.0,3.0,69,0.00,,,0.00,meteohub,2013-08-28 05:22:00,
2013-08-27 22:27:00,66.2,55.8,29.74,North,0,1.0,3.0,69,0.00,,,0.00,meteohub,2013-08-28 05:27:00,
2013-08-27 22:32:00,66.0,55.9,29.75,NE,45,2.0,2.0,70,0.00,,,0.00,meteohub,2013-08-28 05:32:00,
2013-08-27 22:37:00,66.0,55.9,29.75,SE,135,0.0,2.0,70,0.00,,,0.00,meteohub,2013-08-28 05:37:00,
2013-08-27 22:42:00,65.8,55.8,29.75,North,0,0.0,2.0,70,0.00,,,0.00,meteohub,2013-08-28 05:42:00,
2013-08-27 22:47:00,65.8,55.8,29.75,North,0,0.0,2.0,70,0.00,,,0.00,meteohub,2013-08-28 05:47:00,
2013-08-27 22:52:00,65.7,55.6,29.75,South,180,1.0,2.0,70,0.00,,,0.00,meteohub,2013-08-28 05:52:00,
2013-08-27 22:58:00,65.5,55.8,29.74,SW,225,0.0,2.0,71,0.00,,,0.00,meteohub,2013-08-28 05:58:00,
2013-08-27 23:03:00,65.5,55.8,29.75,South,180,0.0,2.0,71,0.00,,,0.00,meteohub,2013-08-28 06:03:00,
2013-08-27 23:08:00,65.1,55.9,29.75,West,270,1.0,1.0,72,0.00,,,0.00,meteohub,2013-08-28 06:08:00,
2013-08-27 23:13:00,65.1,55.9,29.75,SW,225,0.0,1.0,72,0.00,,,0.00,meteohub,2013-08-28 06:13:00,
2013-08-27 23:18:00,64.9,55.8,29.75,East,90,1.0,2.0,72,0.00,,,0.00,meteohub,2013-08-28 06:18:00,
2013-08-27 23:23:00,64.8,55.9,29.75,SE,135,2.0,2.0,73,0.00,,,0.00,meteohub,2013-08-28 06:23:00,
2013-08-27 23:28:00,64.8,55.9,29.75,South,180,0.0,2.0,73,0.00,,,0.00,meteohub,2013-08-28 06:28:00,
2013-08-27 23:33:00,64.6,56.1,29.74,West,270,1.0,2.0,74,0.00,,,0.00,meteohub,2013-08-28 06:33:00,
2013-08-27 23:38:00,64.6,56.1,29.74,West,270,2.0,2.0,74,0.00,,,0.00,meteohub,2013-08-28 06:38:00,
2013-08-27 23:43:00,64.6,56.1,29.74,South,180,2.0,2.0,74,0.00,,,0.00,meteohub,2013-08-28 06:43:00,
2013-08-27 23:48:00,64.6,56.1,29.75,NW,315,1.0,2.0,74,0.00,,,0.00,meteohub,2013-08-28 06:48:00,
2013-08-27 23:53:00,64.6,56.1,29.75,South,180,1.0,2.0,74,0.00,,,0.00,meteohub,2013-08-28 06:53:00,
2013-08-27 23:58:00,64.6,56.5,29.75,West,270,2.0,2.0,75,0.00,,,0.00,meteohub,2013-08-28 06:58:00,